TimeCDT,TemperatureF,Dew PointF,Humidity,Sea Level PressureIn,VisibilityMPH,Wind Direction,Wind SpeedMPH,Gust SpeedMPH,PrecipitationIn,Events,Conditions,WindDirDegrees,DateUTC
12:15 AM,66.2,53.6,64,29.63,10.0,South,23.0,32.2,N/A,,Clear,170,2013-09-23 05:15:00
12:34 AM,66.2,55.4,68,29.64,10.0,South,23.0,31.1,N/A,,Clear,170,2013-09-23 05:34:00
12:54 AM,66.2,53.6,64,29.63,10.0,South,24.2,31.1,N/A,,Clear,170,2013-09-23 05:54:00
1:15 AM,66.2,53.6,64,29.63,10.0,South,23.0,31.1,N/A,,Clear,170,2013-09-23 06:15:00
1:34 AM,64.4,53.6,68,29.63,10.0,South,23.0,28.8,N/A,,Clear,170,2013-09-23 06:34:00
1:54 AM,64.4,53.6,68,29.63,10.0,South,21.9,27.6,N/A,,Clear,170,2013-09-23 06:54:00
2:15 AM,66.2,53.6,64,29.63,10.0,South,21.9,27.6,N/A,,Clear,170,2013-09-23 07:15:00
2:34 AM,64.4,53.6,68,29.63,10.0,South,20.7,27.6,N/A,,Clear,170,2013-09-23 07:34:00
2:54 AM,64.4,53.6,68,29.63,10.0,South,19.6,27.6,N/A,,Clear,170,2013-09-23 07:54:00
3:15 AM,64.4,51.8,64,29.63,10.0,South,18.4,21.9,N/A,,Clear,170,2013-09-23 08:15:00
3:34 AM,66.2,51.8,60,29.63,10.0,South,21.9,26.5,N/A,,Clear,180,2013-09-23 08:34:00
3:54 AM,66.2,51.8,60,29.63,10.0,South,23.0,29.9,N/A,,Clear,180,2013-09-23 08:54:00
4:15 AM,68.0,51.8,56,29.63,10.0,South,23.0,28.8,N/A,,Clear,180,2013-09-23 09:15:00
4:34 AM,66.2,51.8,60,29.63,10.0,South,23.0,32.2,N/A,,Clear,180,2013-09-23 09:34:00
4:54 AM,66.2,51.8,60,29.64,10.0,South,26.5,31.1,N/A,,Clear,180,2013-09-23 09:54:00
5:15 AM,66.2,51.8,60,29.64,10.0,South,21.9,31.1,N/A,,Clear,180,2013-09-23 10:15:00
5:34 AM,66.2,51.8,60,29.64,10.0,South,20.7,31.1,N/A,,Clear,180,2013-09-23 10:34:00
5:54 AM,66.2,51.8,60,29.64,10.0,South,23.0,29.9,N/A,,Clear,180,2013-09-23 10:54:00
6:15 AM,66.2,51.8,60,29.64,10.0,South,18.4,28.8,N/A,,Clear,170,2013-09-23 11:15:00
6:34 AM,62.6,51.8,68,29.64,10.0,SSE,15.0,-,N/A,,Clear,160,2013-09-23 11:34:00
6:55 AM,62.6,51.8,68,29.65,10.0,SSE,15.0,-,N/A,,Clear,160,2013-09-23 11:55:00
7:14 AM,62.6,51.8,68,29.65,10.0,SSE,17.3,20.7,N/A,,Clear,160,2013-09-23 12:14:00
7:34 AM,62.6,51.8,68,29.65,10.0,South,15.0,-,N/A,,Clear,170,2013-09-23 12:34:00
7:55 AM,62.6,51.8,68,29.65,10.0,South,15.0,21.9,N/A,,Clear,170,2013-09-23 12:55:00
8:14 AM,62.6,51.8,68,29.65,10.0,South,15.0,-,N/A,,Clear,170,2013-09-23 13:14:00
8:34 AM,64.4,51.8,64,29.65,10.0,South,16.1,-,N/A,,Clear,170,2013-09-23 13:34:00
8:55 AM,66.2,51.8,60,29.65,10.0,South,19.6,26.5,N/A,,Clear,180,2013-09-23 13:55:00
9:14 AM,66.2,51.8,60,29.66,10.0,South,24.2,28.8,N/A,,Clear,180,2013-09-23 14:14:00
9:35 AM,68.0,51.8,56,29.67,10.0,South,25.3,29.9,N/A,,Clear,190,2013-09-23 14:35:00
9:55 AM,69.8,51.8,53,29.67,10.0,South,26.5,34.5,N/A,,Clear,180,2013-09-23 14:55:00
10:14 AM,69.8,51.8,53,29.67,10.0,South,21.9,34.5,N/A,,Clear,190,2013-09-23 15:14:00
10:34 AM,71.6,50.0,46,29.68,10.0,South,28.8,34.5,N/A,,Clear,180,2013-09-23 15:34:00
10:55 AM,71.6,50.0,46,29.67,10.0,South,31.1,36.8,N/A,,Clear,180,2013-09-23 15:55:00
11:14 AM,71.6,50.0,46,29.67,10.0,South,28.8,38.0,N/A,,Clear,190,2013-09-23 16:14:00
11:35 AM,73.4,50.0,44,29.68,10.0,South,31.1,40.3,N/A,,Clear,180,2013-09-23 16:35:00
11:55 AM,73.4,50.0,44,29.67,10.0,South,31.1,35.7,N/A,,Clear,180,2013-09-23 16:55:00
12:14 PM,75.2,50.0,41,29.66,10.0,South,29.9,35.7,N/A,,Clear,180,2013-09-23 17:14:00
12:35 PM,75.2,50.0,41,29.66,10.0,South,26.5,36.8,N/A,,Clear,190,2013-09-23 17:35:00
12:55 PM,77.0,50.0,39,29.66,10.0,South,29.9,35.7,N/A,,Clear,180,2013-09-23 17:55:00
1:14 PM,77.0,50.0,39,29.66,10.0,South,26.5,35.7,N/A,,Clear,170,2013-09-23 18:14:00
1:35 PM,78.8,50.0,36,29.66,10.0,South,28.8,34.5,N/A,,Clear,180,2013-09-23 18:35:00
1:55 PM,78.8,50.0,36,29.66,10.0,South,25.3,34.5,N/A,,Clear,190,2013-09-23 18:55:00
2:14 PM,78.8,50.0,36,29.65,10.0,South,28.8,36.8,N/A,,Clear,180,2013-09-23 19:14:00
2:35 PM,78.8,51.8,39,29.65,10.0,South,24.2,33.4,N/A,,Clear,170,2013-09-23 19:35:00
2:55 PM,78.8,50.0,36,29.65,10.0,South,27.6,34.5,N/A,,Clear,190,2013-09-23 19:55:00
3:14 PM,78.8,50.0,36,29.65,10.0,South,26.5,35.7,N/A,,Clear,180,2013-09-23 20:14:00
3:35 PM,78.8,51.8,39,29.65,10.0,South,27.6,33.4,N/A,,Clear,180,2013-09-23 20:35:00
3:54 PM,78.8,51.8,39,29.65,10.0,South,21.9,-,N/A,,Clear,170,2013-09-23 20:54:00
4:14 PM,78.8,51.8,39,29.66,10.0,South,26.5,33.4,N/A,,Clear,180,2013-09-23 21:14:00
4:35 PM,78.8,51.8,39,29.66,10.0,South,28.8,34.5,N/A,,Clear,180,2013-09-23 21:35:00
4:54 PM,78.8,51.8,39,29.67,10.0,South,21.9,34.5,N/A,,Clear,180,2013-09-23 21:54:00
5:14 PM,77.0,51.8,41,29.68,10.0,South,24.2,36.8,N/A,,Clear,180,2013-09-23 22:14:00
5:35 PM,75.2,51.8,44,29.68,10.0,South,21.9,28.8,N/A,,Clear,170,2013-09-23 22:35:00
5:54 PM,75.2,53.6,47,29.68,10.0,South,19.6,31.1,N/A,,Clear,170,2013-09-23 22:54:00
6:14 PM,75.2,53.6,47,29.69,10.0,South,23.0,28.8,N/A,,Clear,170,2013-09-23 23:14:00
6:35 PM,73.4,53.6,50,29.69,10.0,SSE,24.2,32.2,N/A,,Clear,160,2013-09-23 23:35:00
6:54 PM,73.4,53.6,50,29.69,10.0,South,21.9,26.5,N/A,,Clear,170,2013-09-23 23:54:00
7:15 PM,71.6,53.6,53,29.69,10.0,South,20.7,26.5,N/A,,Clear,170,2013-09-24 00:15:00
7:34 PM,71.6,51.8,50,29.70,10.0,South,20.7,26.5,N/A,,Clear,170,2013-09-24 00:34:00
7:54 PM,69.8,51.8,53,29.70,10.0,South,18.4,-,N/A,,Clear,170,2013-09-24 00:54:00
8:15 PM,69.8,51.8,53,29.71,10.0,SSE,19.6,26.5,N/A,,Clear,160,2013-09-24 01:15:00
8:34 PM,69.8,51.8,53,29.71,10.0,South,18.4,-,N/A,,Clear,170,2013-09-24 01:34:00
8:54 PM,68.0,51.8,56,29.72,10.0,South,19.6,26.5,N/A,,Clear,170,2013-09-24 01:54:00
9:15 PM,68.0,51.8,56,29.73,10.0,South,18.4,26.5,N/A,,Clear,170,2013-09-24 02:15:00
9:34 PM,68.0,51.8,56,29.73,10.0,South,20.7,26.5,N/A,,Clear,170,2013-09-24 02:34:00
9:54 PM,68.0,51.8,56,29.74,10.0,South,20.7,26.5,N/A,,Clear,170,2013-09-24 02:54:00
10:15 PM,66.2,51.8,60,29.74,10.0,South,20.7,-,N/A,,Clear,170,2013-09-24 03:15:00
10:34 PM,66.2,51.8,60,29.75,10.0,South,20.7,26.5,N/A,,Clear,170,2013-09-24 03:34:00
10:54 PM,66.2,51.8,60,29.75,10.0,South,20.7,26.5,N/A,,Clear,170,2013-09-24 03:54:00
11:14 PM,66.2,51.8,60,29.75,10.0,South,17.3,26.5,N/A,,Clear,180,2013-09-24 04:14:00
11:34 PM,66.2,51.8,60,29.76,10.0,South,16.1,24.2,N/A,,Clear,180,2013-09-24 04:34:00
11:55 PM,64.4,51.8,64,29.78,10.0,SSW,11.5,-,N/A,,Clear,200,2013-09-24 04:55:00